Home > Weather > Caracas > Past weeks

Flag for Venezuela Past Weather in Caracas, Venezuela — Yesterday and Last 2 Weeks

Now
79 °F

Scattered clouds.


Feels Like: 82 °F
Forecast: 67 / 79 °F
Wind: 2 mph from Northeast

Location: Caracas / Maiquetia Aerop. Intl. Simon Bolivar

Current Time: May 26, 2016 at 6:52:21 AM

Latest Report: May 26, 2016 at 6:00 AM


Visibility: N/A

Pressure: 29.92 "Hg (27.07 "Hg at 875m altitude)

Humidity: 79%

Dew Point: 72 °F

Location of CaracasLocation

Past Weather in Caracas — Graph

°F

Caracas Temperature Yesterday

Maximum temperature yesterday: 90 °F (at 2:00 PM)
Minimum temperature yesterday: 81 °F (at 12:00 AM)
Average temperature yesterday: 83 °F

High & Low Weather Summary for the Past Weeks

 TemperatureHumidityPressure
High93 °F (May 23, 2:00 PM)89% (May 15, 8:00 PM)29.98 "Hg (May 15, 8:00 PM)
Low77 °F (May 11, 5:00 AM)47% (May 23, 2:00 PM)29.83 "Hg (May 13, 5:00 PM)
Average83 °F68%29.91 "Hg
* Reported May 11 5:00 AM — May 26 5:00 AM, Caracas, Weather by CustomWeather, © 2016

Note: Actual official high and low records may vary slightly from our data, if they occured in-between our weather recording intervals... More about our weather records

Advertising

Caracas Weather History for the Previous 24 Hours

Scroll right to see more
 ConditionsComfort  
Time TempWeatherWind HumidityBarometerVisibility
5:00 AM
Thu, May 26
79 °FPassing clouds.No wind70%29.92 "HgN/A
4:00 AM79 °FPassing clouds.No wind74%29.89 "HgN/A
3:00 AM79 °FPassing clouds.No wind74%29.89 "HgN/A
2:00 AM79 °FPassing clouds.No wind79%29.92 "HgN/A
1:00 AM81 °FPassing clouds.No wind74%29.92 "HgN/A
12:00 AM81 °FPassing clouds.No wind79%29.92 "HgN/A
11:00 PM
Wed, May 25
81 °FPassing clouds.No wind79%29.92 "HgN/A
10:00 PM81 °FPassing clouds.3 mph79%29.95 "HgN/A
9:00 PM81 °FPassing clouds.3 mph79%29.92 "HgN/A
7:00 PM81 °FPartly cloudy.3 mph79%29.92 "HgN/A
6:00 PM82 °FScattered clouds.3 mph66%29.89 "HgN/A
5:00 PM86 °FPartly sunny.3 mph59%29.89 "HgN/A
4:00 PM88 °FPartly sunny.3 mph52%29.92 "HgN/A
3:00 PM88 °FScattered clouds.3 mph52%29.92 "HgN/A
2:00 PM90 °FScattered clouds.3 mph49%29.95 "HgN/A
1:00 PM88 °FPassing clouds.5 mph62%29.95 "HgN/A
12:00 PM88 °FPassing clouds.6 mph59%29.98 "HgN/A
11:00 AM88 °FPassing clouds.5 mph59%29.98 "HgN/A
10:00 AM84 °FPassing clouds.5 mph62%29.98 "HgN/A
8:00 AM81 °FPassing clouds.3 mph66%29.95 "HgN/A
7:00 AM81 °FScattered clouds.No wind70%29.95 "HgN/A
6:00 AM81 °FScattered clouds.No wind70%29.92 "HgN/A
Weather by CustomWeather, © 2016

See weather overviewHow to use our weather pages